| time (UTC) | temp C | wind direction | speed KPH | gust KPH | rain 1hr cm | rain 24hr cm | rain mn cm | humidity % | barometer mb |
| 20260504000029 | 21 | 0 | 0.0 | 3.2 | 0.00 | 0.00 | 0.00 | 43 | 1017.9 |
| 20260503234530 | 22 | 0 | 0.0 | 3.2 | 0.00 | 0.00 | 0.00 | 41 | 1017.9 |
| 20260503233030 | 22 | 333 | 1.6 | 6.4 | 0.00 | 0.00 | 0.00 | 38 | 1017.9 |
| 20260503231532 | 22 | 14 | 3.2 | 9.7 | 0.00 | 0.00 | 0.00 | 37 | 1017.9 |
| 20260503230032 | 23 | 314 | 4.8 | 11.3 | 0.00 | 0.00 | 0.00 | 37 | 1017.9 |
| 20260503224533 | 23 | 360 | 1.6 | 12.9 | 0.00 | 0.00 | 0.00 | 36 | 1017.9 |
| 20260503223032 | 23 | 139 | 0.0 | 11.3 | 0.00 | 0.00 | 0.00 | 35 | 1017.7 |
| 20260503221533 | 24 | 8 | 3.2 | 16.1 | 0.00 | 0.00 | 0.00 | 35 | 1017.7 |
| 20260503220029 | 23 | 37 | 6.4 | 12.9 | 0.00 | 0.00 | 0.00 | 34 | 1017.9 |
| 20260503214540 | 24 | 32 | 4.8 | 12.9 | 0.00 | 0.00 | 0.00 | 33 | 1018.0 |
| 20260503213031 | 25 | 13 | 1.6 | 11.3 | 0.00 | 0.00 | 0.00 | 34 | 1018.2 |
| 20260503211534 | 24 | 81 | 3.2 | 12.9 | 0.00 | 0.00 | 0.00 | 32 | 1018.3 |
| 20260503210033 | 24 | 23 | 9.7 | 17.7 | 0.00 | 0.00 | 0.00 | 29 | 1018.6 |
| 20260503204534 | 25 | 340 | 4.8 | 17.7 | 0.00 | 0.00 | 0.00 | 30 | 1018.7 |
| 20260503203036 | 25 | 30 | 4.8 | 11.3 | 0.00 | 0.00 | 0.00 | 31 | 1018.8 |
| 20260503201532 | 24 | 30 | 4.8 | 17.7 | 0.00 | 0.00 | 0.00 | 31 | 1019.0 |
| 20260503200037 | 24 | 39 | 4.8 | 17.7 | 0.00 | 0.00 | 0.00 | 32 | 1019.2 |
| 20260503194532 | 23 | 27 | 8.0 | 16.1 | 0.00 | 0.00 | 0.00 | 31 | 1019.4 |
| 20260503193036 | 24 | 33 | 9.7 | 17.7 | 0.00 | 0.00 | 0.00 | 31 | 1019.8 |
| 20260503191531 | 23 | 16 | 8.0 | 20.9 | 0.00 | 0.00 | 0.00 | 31 | 1020.0 |
| 20260503190032 | 23 | 338 | 6.4 | 12.9 | 0.00 | 0.00 | 0.00 | 31 | 1020.3 |
| 20260503184540 | 24 | 35 | 6.4 | 20.9 | 0.00 | 0.00 | 0.00 | 32 | 1020.6 |
| 20260503183035 | 24 | 342 | 4.8 | 9.7 | 0.00 | 0.00 | 0.00 | 32 | 1020.7 |
| 20260503181530 | 23 | 10 | 8.0 | 25.7 | 0.00 | 0.00 | 0.00 | 35 | 1020.8 |
| 20260503180044 | 22 | 1 | 9.7 | 17.7 | 0.00 | 0.00 | 0.00 | 36 | 1020.9 |
| 20260503174543 | 22 | 18 | 4.8 | 17.7 | 0.00 | 0.00 | 0.00 | 33 | 1020.8 |
| 20260503173039 | 22 | 62 | 9.7 | 14.5 | 0.00 | 0.00 | 0.00 | 32 | 1021.1 |
| 20260503171533 | 22 | 40 | 8.0 | 19.3 | 0.00 | 0.00 | 0.00 | 30 | 1021.5 |
| 20260503081538 | 8 | 0 | 0.0 | 0.0 | 0.00 | 1.24 | 0.00 | 89 | 1019.7 |
| 20260503071528 | 8 | 0 | 0.0 | 0.0 | 0.00 | 1.52 | 0.00 | 88 | 1019.4 |
| 20260503054531 | 10 | 0 | 0.0 | 0.0 | 0.00 | 2.36 | 0.00 | 87 | 1019.1 |
| 20260503053028 | 10 | 0 | 0.0 | 0.0 | 0.00 | 2.36 | 0.00 | 87 | 1019.1 |
| 20260503051536 | 10 | 0 | 0.0 | 0.0 | 0.00 | 2.36 | 0.00 | 86 | 1019.1 |
| 20260503050030 | 10 | 0 | 0.0 | 0.0 | 0.00 | 2.36 | 0.00 | 85 | 1018.9 |
| 20260503044532 | 10 | 0 | 0.0 | 0.0 | 0.00 | 2.39 | 2.36 | 86 | 1018.9 |
| 20260503043029 | 10 | 0 | 0.0 | 1.6 | 0.00 | 2.39 | 2.36 | 84 | 1018.7 |
| 20260503041527 | 11 | 0 | 0.0 | 0.0 | 0.00 | 2.39 | 2.36 | 83 | 1018.6 |
| 20260503040028 | 11 | 0 | 0.0 | 0.0 | 0.00 | 2.39 | 2.36 | 80 | 1018.7 |
| 20260503034529 | 11 | 0 | 0.0 | 0.0 | 0.00 | 2.62 | 2.36 | 79 | 1018.5 |
| 20260503033036 | 11 | 0 | 0.0 | 0.0 | 0.00 | 2.62 | 2.36 | 78 | 1018.4 |
| 20260503031532 | 12 | 0 | 0.0 | 0.0 | 0.00 | 2.62 | 2.36 | 75 | 1018.2 |
| 20260503030047 | 12 | 0 | 0.0 | 0.0 | 0.00 | 2.62 | 2.36 | 74 | 1018.1 |
| 20260503024533 | 13 | 0 | 0.0 | 0.0 | 0.00 | 3.38 | 2.36 | 70 | 1018.1 |
| 20260503023033 | 13 | 0 | 0.0 | 0.0 | 0.00 | 3.38 | 2.36 | 71 | 1017.8 |
| 20260503021531 | 14 | 0 | 0.0 | 0.0 | 0.00 | 3.38 | 2.36 | 67 | 1017.7 |
| 20260503020028 | 15 | 0 | 0.0 | 3.2 | 0.00 | 3.38 | 2.36 | 64 | 1017.4 |
| 20260503014528 | 15 | 0 | 0.0 | 1.6 | 0.00 | 3.56 | 2.36 | 63 | 1017.3 |
| 20260503013029 | 15 | 0 | 0.0 | 3.2 | 0.00 | 3.56 | 2.36 | 62 | 1017.1 |
| 20260503011530 | 15 | 347 | 0.0 | 1.6 | 0.00 | 3.56 | 2.36 | 62 | 1016.9 |
| 20260503010028 | 16 | 331 | 0.0 | 3.2 | 0.00 | 3.56 | 2.36 | 60 | 1016.6 |
| 20260503004527 | 17 | 340 | 0.0 | 3.2 | 0.00 | 3.81 | 2.36 | 54 | 1016.2 |
| 20260503003030 | 18 | 353 | 0.0 | 4.8 | 0.00 | 3.81 | 2.36 | 50 | 1015.9 |
| 20260503001529 | 18 | 359 | 6.4 | 11.3 | 0.00 | 3.81 | 2.36 | 46 | 1015.6 |